| time (UTC) | temp C | wind direction | speed KPH | gust KPH | rain 1hr cm | rain 24hr cm | rain mn cm | humidity % | barometer mb |
| 20260504175235 | 21 | 321 | 4.8 | 6.4 | 0.00 | 0.00 | 0.00 | 30 | 1009.1 |
| 20260504174733 | 22 | 2 | 8.0 | 11.3 | 0.00 | 0.00 | 0.00 | 28 | 1009.3 |
| 20260504174231 | 23 | 178 | 3.2 | 11.3 | 0.00 | 0.00 | 0.00 | 33 | 1009.2 |
| 20260504173727 | 22 | 153 | 6.4 | 9.7 | 0.00 | 0.00 | 0.00 | 33 | 1009.3 |
| 20260504173224 | 21 | 175 | 6.4 | 9.7 | 0.00 | 0.00 | 0.00 | 33 | 1009.7 |
| 20260504172721 | 22 | 80 | 4.8 | 6.4 | 0.00 | 0.00 | 0.00 | 32 | 1009.3 |
| 20260504172217 | 21 | 205 | 1.6 | 14.5 | 0.00 | 0.00 | 0.00 | 30 | 1009.4 |
| 20260504171714 | 22 | 19 | 3.2 | 17.7 | 0.00 | 0.00 | 0.00 | 30 | 1009.7 |
| 20260504171211 | 22 | 0 | 9.7 | 12.9 | 0.00 | 0.00 | 0.00 | 32 | 1009.4 |
| 20260504170708 | 22 | 127 | 3.2 | 9.7 | 0.00 | 0.00 | 0.00 | 29 | 1009.7 |
| 20260504170206 | 22 | 185 | 8.0 | 11.3 | 0.00 | 0.00 | 0.00 | 31 | 1009.7 |
| 20260504160124 | 20 | 112 | 3.2 | 11.3 | 0.00 | 0.00 | 0.00 | 33 | 1010.6 |
| 20260504151051 | 18 | 200 | 3.2 | 9.7 | 0.00 | 0.00 | 0.00 | 37 | 1011.0 |
| 20260504150548 | 18 | 332 | 1.6 | 12.9 | 0.00 | 0.00 | 0.00 | 33 | 1011.2 |
| 20260504141014 | 17 | 305 | 3.2 | 4.8 | 0.00 | 0.00 | 0.00 | 38 | 1011.6 |
| 20260504140511 | 17 | 289 | 1.6 | 1.6 | 0.00 | 0.00 | 0.00 | 40 | 1011.6 |
| 20260504130435 | 16 | 213 | 6.4 | 6.4 | 0.00 | 0.00 | 0.00 | 41 | 1012.4 |
| 20260504110322 | 7 | 241 | 0.0 | 3.2 | 0.00 | 0.00 | 0.00 | 65 | 1012.5 |
| 20260504100240 | 2 | 192 | 0.0 | 0.0 | 0.00 | 0.00 | 0.00 | 89 | 1012.3 |
| 20260504081633 | 3 | 307 | 0.0 | 0.0 | 0.00 | 0.00 | 0.00 | 84 | 1011.8 |
| 20260504081129 | 3 | 287 | 0.0 | 0.0 | 0.00 | 0.00 | 0.00 | 83 | 1011.8 |
| 20260504080626 | 3 | 283 | 0.0 | 0.0 | 0.00 | 0.00 | 0.00 | 82 | 1011.9 |
| 20260504080122 | 3 | 283 | 0.0 | 0.0 | 0.00 | 0.00 | 0.00 | 81 | 1011.8 |
| 20260504050439 | 2 | 223 | 0.0 | 0.0 | 0.00 | 0.00 | 0.00 | 78 | 1012.2 |
| 20260504045936 | 2 | 301 | 0.0 | 0.0 | 0.00 | 0.00 | 0.00 | 77 | 1012.2 |
| 20260504045432 | 2 | 301 | 0.0 | 0.0 | 0.00 | 0.00 | 0.00 | 77 | 1012.0 |
| 20260504044928 | 2 | 301 | 0.0 | 0.0 | 0.00 | 0.00 | 0.00 | 75 | 1012.2 |
| 20260504044426 | 2 | 284 | 0.0 | 0.0 | 0.00 | 0.00 | 0.00 | 76 | 1012.4 |
| 20260504043923 | 2 | 284 | 0.0 | 0.0 | 0.00 | 0.00 | 0.00 | 75 | 1012.3 |
| 20260504043420 | 2 | 284 | 0.0 | 0.0 | 0.00 | 0.00 | 0.00 | 75 | 1012.3 |
| 20260504042917 | 3 | 284 | 0.0 | 0.0 | 0.00 | 0.00 | 0.00 | 75 | 1012.1 |
| 20260504042414 | 3 | 318 | 0.0 | 0.0 | 0.00 | 0.00 | 0.00 | 75 | 1012.1 |
| 20260504041910 | 3 | 331 | 0.0 | 0.0 | 0.00 | 0.00 | 0.00 | 74 | 1012.2 |
| 20260504041406 | 3 | 308 | 0.0 | 0.0 | 0.00 | 0.00 | 0.00 | 74 | 1012.0 |
| 20260504040902 | 3 | 305 | 0.0 | 1.6 | 0.00 | 0.00 | 0.00 | 73 | 1012.0 |
| 20260504040400 | 3 | 275 | 0.0 | 0.0 | 0.00 | 0.00 | 0.00 | 73 | 1012.0 |
| 20260504035856 | 3 | 275 | 0.0 | 0.0 | 0.00 | 0.00 | 0.00 | 72 | 1012.0 |
| 20260504035354 | 3 | 274 | 0.0 | 0.0 | 0.00 | 0.00 | 0.00 | 74 | 1012.0 |
| 20260504034850 | 3 | 319 | 0.0 | 0.0 | 0.00 | 0.00 | 0.00 | 73 | 1011.8 |
| 20260504034347 | 3 | 319 | 0.0 | 0.0 | 0.00 | 0.00 | 0.00 | 74 | 1012.0 |
| 20260504033844 | 3 | 316 | 0.0 | 0.0 | 0.00 | 0.00 | 0.00 | 74 | 1011.8 |
| 20260504033343 | 3 | 316 | 0.0 | 0.0 | 0.00 | 0.00 | 0.00 | 73 | 1011.8 |
| 20260504032839 | 4 | 316 | 0.0 | 0.0 | 0.00 | 0.00 | 0.00 | 74 | 1011.8 |
| 20260504032336 | 4 | 316 | 0.0 | 0.0 | 0.00 | 0.00 | 0.00 | 72 | 1012.0 |
| 20260504031833 | 4 | 316 | 0.0 | 0.0 | 0.00 | 0.00 | 0.00 | 71 | 1011.8 |
| 20260504031330 | 4 | 316 | 0.0 | 0.0 | 0.00 | 0.00 | 0.00 | 72 | 1011.7 |
| 20260504030826 | 4 | 317 | 0.0 | 0.0 | 0.00 | 0.00 | 0.00 | 70 | 1011.7 |
| 20260504030324 | 4 | 317 | 0.0 | 0.0 | 0.00 | 0.00 | 0.00 | 70 | 1011.8 |
| 20260504025820 | 4 | 316 | 0.0 | 0.0 | 0.00 | 0.00 | 0.00 | 72 | 1011.9 |
| 20260504025317 | 5 | 317 | 0.0 | 0.0 | 0.00 | 0.00 | 0.00 | 70 | 1011.9 |
| 20260504024813 | 5 | 315 | 0.0 | 0.0 | 0.00 | 0.00 | 0.00 | 72 | 1011.7 |
| 20260504024310 | 5 | 316 | 0.0 | 0.0 | 0.00 | 0.00 | 0.00 | 69 | 1011.8 |
| 20260504023807 | 5 | 317 | 0.0 | 0.0 | 0.00 | 0.00 | 0.00 | 73 | 1011.9 |
| 20260504023303 | 5 | 312 | 0.0 | 0.0 | 0.00 | 0.00 | 0.00 | 71 | 1011.8 |
| 20260504022759 | 5 | 312 | 0.0 | 0.0 | 0.00 | 0.00 | 0.00 | 71 | 1011.8 |
| 20260504022255 | 5 | 312 | 0.0 | 0.0 | 0.00 | 0.00 | 0.00 | 67 | 1011.7 |
| 20260504021752 | 5 | 312 | 0.0 | 0.0 | 0.00 | 0.00 | 0.00 | 71 | 1011.7 |
| 20260504021250 | 5 | 312 | 0.0 | 0.0 | 0.00 | 0.00 | 0.00 | 70 | 1011.5 |
| 20260504020747 | 5 | 312 | 0.0 | 0.0 | 0.00 | 0.00 | 0.00 | 68 | 1011.6 |
| 20260504020243 | 5 | 318 | 0.0 | 0.0 | 0.00 | 0.00 | 0.00 | 69 | 1011.6 |
| 20260504015739 | 5 | 318 | 0.0 | 0.0 | 0.00 | 0.00 | 0.00 | 69 | 1011.5 |
| 20260504015236 | 5 | 318 | 0.0 | 0.0 | 0.00 | 0.00 | 0.00 | 69 | 1011.6 |
| 20260504014732 | 5 | 318 | 0.0 | 0.0 | 0.00 | 0.00 | 0.00 | 69 | 1011.4 |
| 20260504014228 | 5 | 318 | 0.0 | 0.0 | 0.00 | 0.00 | 0.00 | 67 | 1011.5 |
| 20260504013726 | 5 | 318 | 0.0 | 0.0 | 0.00 | 0.00 | 0.00 | 63 | 1011.3 |
| 20260504013224 | 6 | 318 | 0.0 | 0.0 | 0.00 | 0.00 | 0.00 | 66 | 1011.1 |
| 20260504012720 | 6 | 318 | 0.0 | 0.0 | 0.00 | 0.00 | 0.00 | 65 | 1011.3 |
| 20260504012218 | 6 | 318 | 0.0 | 0.0 | 0.00 | 0.00 | 0.00 | 62 | 1011.2 |
| 20260504011715 | 6 | 318 | 0.0 | 0.0 | 0.00 | 0.00 | 0.00 | 61 | 1011.1 |
| 20260504011212 | 6 | 318 | 0.0 | 0.0 | 0.00 | 0.00 | 0.00 | 62 | 1011.2 |
| 20260504010708 | 6 | 318 | 0.0 | 0.0 | 0.00 | 0.00 | 0.00 | 54 | 1011.3 |
| 20260504010203 | 6 | 318 | 0.0 | 0.0 | 0.00 | 0.00 | 0.00 | 57 | 1011.2 |
| 20260504005700 | 6 | 318 | 0.0 | 0.0 | 0.00 | 0.00 | 0.00 | 62 | 1010.9 |
| 20260504005157 | 6 | 318 | 0.0 | 0.0 | 0.00 | 0.00 | 0.00 | 56 | 1010.8 |
| 20260504004655 | 7 | 318 | 0.0 | 0.0 | 0.00 | 0.00 | 0.00 | 64 | 1010.7 |
| 20260504004152 | 7 | 318 | 0.0 | 0.0 | 0.00 | 0.00 | 0.00 | 52 | 1010.7 |
| 20260504003648 | 7 | 318 | 0.0 | 0.0 | 0.00 | 0.00 | 0.00 | 58 | 1010.6 |
| 20260504003145 | 7 | 318 | 0.0 | 0.0 | 0.00 | 0.00 | 0.00 | 49 | 1010.6 |
| 20260504002642 | 8 | 318 | 0.0 | 0.0 | 0.00 | 0.00 | 0.00 | 51 | 1010.5 |
| 20260504002139 | 8 | 319 | 0.0 | 0.0 | 0.00 | 0.00 | 0.00 | 54 | 1010.3 |
| 20260504001637 | 8 | 319 | 0.0 | 0.0 | 0.00 | 0.00 | 0.00 | 45 | 1010.4 |
| 20260504001133 | 8 | 318 | 0.0 | 0.0 | 0.00 | 0.00 | 0.00 | 44 | 1010.2 |
| 20260504000630 | 9 | 319 | 0.0 | 0.0 | 0.00 | 0.00 | 0.00 | 49 | 1010.2 |
| 20260504000127 | 9 | 321 | 0.0 | 0.0 | 0.00 | 0.00 | 0.00 | 46 | 1010.0 |
| 20260503235626 | 10 | 5 | 1.6 | 1.6 | 0.00 | 0.00 | 0.00 | 40 | 1010.0 |
| 20260503235122 | 10 | 316 | 0.0 | 0.0 | 0.00 | 0.00 | 0.00 | 44 | 1009.9 |
| 20260503234620 | 10 | 330 | 0.0 | 0.0 | 0.00 | 0.00 | 0.00 | 43 | 1010.0 |
| 20260503234118 | 10 | 322 | 0.0 | 0.0 | 0.00 | 0.00 | 0.00 | 41 | 1010.0 |
| 20260503233615 | 11 | 311 | 0.0 | 0.0 | 0.00 | 0.00 | 0.00 | 37 | 1009.8 |
| 20260503233110 | 11 | 326 | 0.0 | 1.6 | 0.00 | 0.00 | 0.00 | 36 | 1009.9 |
| 20260503232607 | 12 | 6 | 0.0 | 1.6 | 0.00 | 0.00 | 0.00 | 34 | 1009.8 |
| 20260503232105 | 12 | 4 | 3.2 | 3.2 | 0.00 | 0.00 | 0.00 | 33 | 1009.7 |
| 20260503231603 | 12 | 300 | 1.6 | 3.2 | 0.00 | 0.00 | 0.00 | 33 | 1009.9 |
| 20260503231059 | 12 | 334 | 3.2 | 12.9 | 0.00 | 0.00 | 0.00 | 32 | 1009.5 |
| 20260503230555 | 12 | 359 | 0.0 | 3.2 | 0.00 | 0.00 | 0.00 | 36 | 1009.5 |
| 20260503230053 | 12 | 349 | 8.0 | 11.3 | 0.00 | 0.00 | 0.00 | 32 | 1009.5 |
| 20260503225550 | 12 | 357 | 4.8 | 9.7 | 0.00 | 0.00 | 0.00 | 34 | 1009.7 |
| 20260503225045 | 12 | 1 | 3.2 | 9.7 | 0.00 | 0.00 | 0.00 | 34 | 1009.7 |
| 20260503224543 | 12 | 326 | 4.8 | 6.4 | 0.00 | 0.00 | 0.00 | 36 | 1009.8 |
| 20260503224040 | 12 | 13 | 0.0 | 4.8 | 0.00 | 0.00 | 0.00 | 34 | 1009.7 |
| 20260503223538 | 12 | 354 | 0.0 | 1.6 | 0.00 | 0.00 | 0.00 | 33 | 1009.6 |
| 20260503223033 | 12 | 7 | 4.8 | 6.4 | 0.00 | 0.00 | 0.00 | 33 | 1009.5 |
| 20260503222532 | 12 | 329 | 3.2 | 6.4 | 0.00 | 0.00 | 0.00 | 33 | 1009.5 |
| 20260503222030 | 12 | 351 | 1.6 | 4.8 | 0.00 | 0.00 | 0.00 | 35 | 1009.6 |
| 20260503221528 | 12 | 358 | 9.7 | 16.1 | 0.00 | 0.00 | 0.00 | 32 | 1009.6 |
| 20260503221025 | 12 | 329 | 1.6 | 6.4 | 0.00 | 0.00 | 0.00 | 33 | 1009.5 |
| 20260503220521 | 12 | 13 | 4.8 | 12.9 | 0.00 | 0.00 | 0.00 | 34 | 1009.6 |
| 20260503220017 | 12 | 286 | 6.4 | 14.5 | 0.00 | 0.00 | 0.00 | 34 | 1009.7 |
| 20260503215515 | 12 | 314 | 8.0 | 11.3 | 0.00 | 0.00 | 0.00 | 34 | 1009.6 |
| 20260503215012 | 12 | 302 | 6.4 | 12.9 | 0.00 | 0.00 | 0.00 | 36 | 1009.7 |
| 20260503214510 | 13 | 6 | 3.2 | 6.4 | 0.00 | 0.00 | 0.00 | 35 | 1009.6 |
| 20260503214006 | 13 | 31 | 4.8 | 4.8 | 0.00 | 0.00 | 0.00 | 33 | 1009.6 |
| 20260503213505 | 13 | 359 | 4.8 | 6.4 | 0.00 | 0.00 | 0.00 | 36 | 1009.5 |
| 20260503213001 | 12 | 341 | 3.2 | 12.9 | 0.00 | 0.00 | 0.00 | 36 | 1009.4 |
| 20260503212459 | 12 | 328 | 6.4 | 9.7 | 0.00 | 0.00 | 0.00 | 34 | 1009.5 |
| 20260503211956 | 12 | 324 | 3.2 | 6.4 | 0.00 | 0.00 | 0.00 | 36 | 1009.8 |
| 20260503211453 | 12 | 20 | 4.8 | 4.8 | 0.00 | 0.00 | 0.00 | 34 | 1009.7 |
| 20260503210948 | 12 | 28 | 4.8 | 4.8 | 0.00 | 0.00 | 0.00 | 35 | 1009.7 |
| 20260503210446 | 12 | 17 | 4.8 | 16.1 | 0.00 | 0.00 | 0.00 | 35 | 1009.5 |
| 20260503205946 | 12 | 4 | 8.0 | 20.9 | 0.00 | 0.00 | 0.00 | 34 | 1009.7 |
| 20260503205443 | 12 | 12 | 6.4 | 11.3 | 0.00 | 0.00 | 0.00 | 35 | 1009.6 |
| 20260503204939 | 13 | 295 | 4.8 | 6.4 | 0.00 | 0.00 | 0.00 | 35 | 1009.5 |
| 20260503204436 | 13 | 9 | 6.4 | 11.3 | 0.00 | 0.00 | 0.00 | 35 | 1009.3 |
| 20260503203933 | 15 | 359 | 6.4 | 6.4 | 0.00 | 0.00 | 0.00 | 33 | 1009.6 |
| 20260503203431 | 13 | 20 | 11.3 | 16.1 | 0.00 | 0.00 | 0.00 | 34 | 1009.4 |
| 20260503202927 | 12 | 29 | 11.3 | 12.9 | 0.00 | 0.00 | 0.00 | 34 | 1009.4 |
| 20260503202426 | 11 | 300 | 6.4 | 9.7 | 0.00 | 0.00 | 0.00 | 37 | 1009.4 |
| 20260503201924 | 11 | 306 | 11.3 | 16.1 | 0.00 | 0.00 | 0.00 | 36 | 1009.4 |
| 20260503201421 | 12 | 35 | 11.3 | 14.5 | 0.00 | 0.00 | 0.00 | 37 | 1009.5 |
| 20260503200918 | 12 | 282 | 11.3 | 24.1 | 0.00 | 0.00 | 0.00 | 34 | 1009.5 |
| 20260503200414 | 12 | 309 | 11.3 | 22.5 | 0.00 | 0.00 | 0.00 | 34 | 1009.4 |
| 20260503195911 | 12 | 330 | 12.9 | 22.5 | 0.00 | 0.00 | 0.00 | 37 | 1009.2 |
| 20260503195409 | 12 | 8 | 6.4 | 11.3 | 0.00 | 0.00 | 0.00 | 35 | 1009.3 |
| 20260503194905 | 11 | 356 | 9.7 | 12.9 | 0.00 | 0.00 | 0.00 | 36 | 1009.2 |
| 20260503194401 | 12 | 331 | 12.9 | 16.1 | 0.00 | 0.00 | 0.00 | 34 | 1009.3 |
| 20260503193857 | 11 | 309 | 3.2 | 4.8 | 0.00 | 0.00 | 0.00 | 36 | 1009.3 |
| 20260503193353 | 11 | 244 | 6.4 | 27.4 | 0.00 | 0.00 | 0.00 | 36 | 1009.5 |
| 20260503192849 | 12 | 50 | 8.0 | 17.7 | 0.00 | 0.00 | 0.00 | 35 | 1009.2 |
| 20260503192345 | 12 | 332 | 9.7 | 11.3 | 0.00 | 0.00 | 0.00 | 37 | 1009.2 |
| 20260503191841 | 12 | 8 | 1.6 | 9.7 | 0.00 | 0.00 | 0.00 | 34 | 1009.3 |
| 20260503191339 | 12 | 276 | 16.1 | 22.5 | 0.00 | 0.00 | 0.00 | 34 | 1009.4 |
| 20260503190835 | 11 | 328 | 6.4 | 9.7 | 0.00 | 0.00 | 0.00 | 38 | 1009.3 |
| 20260503190332 | 11 | 308 | 6.4 | 11.3 | 0.00 | 0.00 | 0.00 | 36 | 1009.2 |
| 20260503185829 | 12 | 316 | 11.3 | 17.7 | 0.00 | 0.00 | 0.00 | 35 | 1009.1 |
| 20260503185326 | 12 | 344 | 8.0 | 22.5 | 0.00 | 0.00 | 0.00 | 38 | 1009.3 |
| 20260503184826 | 12 | 333 | 3.2 | 6.4 | 0.00 | 0.00 | 0.00 | 39 | 1009.2 |
| 20260503184322 | 12 | 10 | 6.4 | 9.7 | 0.00 | 0.00 | 0.00 | 34 | 1009.3 |
| 20260503183818 | 12 | 16 | 4.8 | 11.3 | 0.00 | 0.00 | 0.00 | 37 | 1009.4 |
| 20260503183315 | 11 | 37 | 9.7 | 16.1 | 0.00 | 0.00 | 0.00 | 35 | 1009.2 |
| 20260503182812 | 12 | 306 | 3.2 | 6.4 | 0.00 | 0.00 | 0.00 | 36 | 1009.2 |
| 20260503182312 | 12 | 13 | 4.8 | 14.5 | 0.00 | 0.00 | 0.00 | 35 | 1009.2 |
| 20260503181808 | 12 | 336 | 11.3 | 16.1 | 0.00 | 0.00 | 0.00 | 33 | 1009.3 |
| 20260503181305 | 11 | 27 | 6.4 | 6.4 | 0.00 | 0.00 | 0.00 | 38 | 1009.2 |
| 20260503180802 | 11 | 316 | 3.2 | 6.4 | 0.00 | 0.00 | 0.00 | 41 | 1009.2 |
| 20260503180300 | 11 | 57 | 4.8 | 9.7 | 0.00 | 0.00 | 0.00 | 37 | 1009.3 |
| 20260503175755 | 12 | 14 | 8.0 | 16.1 | 0.00 | 0.00 | 0.00 | 37 | 1009.4 |